• Em Portugal
  • Lista de países
  • Para 7 dias
  • Temperatura da água
  • Mapas de satélite
  • Mapa do tempo
  • Widgets de tempo
  • user-avatar
    Iniciar Sessão

    Previsão horária em Biskira

    Hoje, 21 Fevereiro, Quarta-feira

    Tempo Temperatura Precipitação Vento Pressão Humidade
    00:00 +13°C° 0 mm 5 m/s 746 mmHg 61%
    01:00 +13°C° 0 mm 5 m/s 746 mmHg 63%
    02:00 +12°C° 0 mm 4 m/s 746 mmHg 65%
    03:00 +12°C° 0 mm 4 m/s 745 mmHg 67%
    04:00 +12°C° 0 mm 4 m/s 745 mmHg 68%
    05:00 +12°C° 0 mm 4 m/s 745 mmHg 68%
    06:00 +12°C° 0 mm 4 m/s 745 mmHg 69%
    07:00 +12°C° 0,2 mm 4 m/s 745 mmHg 68%
    08:00 +13°C° 0,2 mm 3 m/s 745 mmHg 66%
    09:00 +13°C° 0,2 mm 3 m/s 745 mmHg 65%
    10:00 +14°C° 0,2 mm 3 m/s 744 mmHg 63%
    11:00 +15°C° 0,2 mm 2 m/s 744 mmHg 61%
    12:00 +15°C° 0,2 mm 2 m/s 743 mmHg 59%
    13:00 +16°C° 0,1 mm 2 m/s 743 mmHg 59%
    14:00 +16°C° 0,1 mm 2 m/s 742 mmHg 59%
    15:00 +16°C° 0,1 mm 2 m/s 742 mmHg 59%
    16:00 +15°C° 0,3 mm 2 m/s 741 mmHg 62%
    17:00 +15°C° 0,3 mm 2 m/s 741 mmHg 64%
    18:00 +15°C° 0,3 mm 2 m/s 741 mmHg 67%
    19:00 +14°C° 0,2 mm 2 m/s 741 mmHg 69%
    20:00 +14°C° 0,2 mm 2 m/s 742 mmHg 72%
    21:00 +13°C° 0,2 mm 2 m/s 742 mmHg 74%
    22:00 +13°C° 0 mm 2 m/s 742 mmHg 75%
    23:00 +13°C° 0 mm 2 m/s 742 mmHg 76%

    Amanhã, 22 Fevereiro, Quinta-feira

    Tempo Temperatura Precipitação Vento Pressão Humidade
    00:00 +12°C° 0 mm 2 m/s 742 mmHg 77%
    01:00 +11°C° 0,2 mm 3 m/s 742 mmHg 76%
    02:00 +11°C° 0,2 mm 3 m/s 742 mmHg 74%
    03:00 +11°C° 0,2 mm 4 m/s 742 mmHg 73%
    04:00 +9°C° 0 mm 5 m/s 742 mmHg 71%
    05:00 +9°C° 0 mm 5 m/s 742 mmHg 68%
    06:00 +8°C° 0 mm 6 m/s 742 mmHg 66%
    07:00 +9°C° 0 mm 6 m/s 742 mmHg 61%
    08:00 +10°C° 0 mm 6 m/s 742 mmHg 55%
    09:00 +11°C° 0 mm 7 m/s 743 mmHg 49%
    10:00 +13°C° 0 mm 6 m/s 743 mmHg 46%
    11:00 +14°C° 0 mm 6 m/s 743 mmHg 43%
    12:00 +14°C° 0 mm 5 m/s 742 mmHg 39%
    13:00 +15°C° 0 mm 5 m/s 742 mmHg 38%
    14:00 +15°C° 0 mm 5 m/s 742 mmHg 37%
    15:00 +15°C° 0 mm 4 m/s 742 mmHg 36%
    16:00 +14°C° 0,1 mm 4 m/s 742 mmHg 39%
    17:00 +14°C° 0,1 mm 4 m/s 743 mmHg 41%
    18:00 +13°C° 0,1 mm 4 m/s 743 mmHg 43%
    19:00 +12°C° 0 mm 4 m/s 743 mmHg 46%
    20:00 +12°C° 0 mm 3 m/s 744 mmHg 49%
    21:00 +11°C° 0 mm 3 m/s 745 mmHg 53%
    22:00 +10°C° 0 mm 3 m/s 745 mmHg 55%
    23:00 +10°C° 0 mm 2 m/s 745 mmHg 57%

    Depois de amanhã, 23 Fevereiro, Sexta-feira

    Tempo Temperatura Precipitação Vento Pressão Humidade
    00:00 +9°C° 0 mm 2 m/s 745 mmHg 59%
    01:00 +9°C° 0 mm 2 m/s 745 mmHg 60%
    02:00 +9°C° 0 mm 2 m/s 744 mmHg 60%
    03:00 +9°C° 0 mm 1 m/s 744 mmHg 61%
    04:00 +9°C° 0 mm 1 m/s 744 mmHg 62%
    05:00 +9°C° 0 mm 1 m/s 745 mmHg 62%
    06:00 +8°C° 0 mm 1 m/s 745 mmHg 63%
    07:00 +9°C° 0 mm 1 m/s 745 mmHg 57%
    08:00 +11°C° 0 mm 1 m/s 745 mmHg 51%
    09:00 +12°C° 0 mm 1 m/s 746 mmHg 45%
    10:00 +13°C° 0 mm 2 m/s 746 mmHg 44%
    11:00 +14°C° 0 mm 2 m/s 745 mmHg 42%
    12:00 +14°C° 0 mm 3 m/s 745 mmHg 41%
    13:00 +14°C° 0 mm 3 m/s 745 mmHg 40%
    14:00 +15°C° 0 mm 2 m/s 745 mmHg 39%
    15:00 +16°C° 0 mm 2 m/s 744 mmHg 38%
    16:00 +15°C° 0 mm 2 m/s 745 mmHg 40%
    17:00 +14°C° 0 mm 2 m/s 745 mmHg 42%
    18:00 +14°C° 0 mm 2 m/s 745 mmHg 44%
    19:00 +13°C° 0 mm 2 m/s 746 mmHg 46%
    20:00 +13°C° 0 mm 2 m/s 746 mmHg 48%
    21:00 +12°C° 0 mm 2 m/s 747 mmHg 49%
    22:00 +12°C° 0 mm 2 m/s 747 mmHg 49%
    23:00 +12°C° 0 mm 2 m/s 747 mmHg 48%

    24 Fevereiro, Sábado

    Tempo Temperatura Precipitação Vento Pressão Humidade
    00:00 +12°C° 0 mm 2 m/s 747 mmHg 48%
    01:00 +10°C° 0 mm 2 m/s 747 mmHg 48%
    02:00 +10°C° 0 mm 2 m/s 746 mmHg 48%
    03:00 +10°C° 0 mm 2 m/s 746 mmHg 48%
    04:00 +10°C° 0 mm 3 m/s 746 mmHg 48%
    05:00 +10°C° 0 mm 3 m/s 746 mmHg 49%
    06:00 +10°C° 0 mm 3 m/s 746 mmHg 49%
    07:00 +11°C° 0 mm 3 m/s 746 mmHg 45%
    08:00 +12°C° 0 mm 4 m/s 746 mmHg 42%
    09:00 +13°C° 0 mm 5 m/s 746 mmHg 38%
    10:00 +14°C° 0 mm 4 m/s 746 mmHg 37%
    11:00 +15°C° 0 mm 4 m/s 746 mmHg 35%
    12:00 +17°C° 0 mm 4 m/s 745 mmHg 33%
    13:00 +17°C° 0,1 mm 4 m/s 745 mmHg 32%
    14:00 +18°C° 0,1 mm 3 m/s 744 mmHg 31%
    15:00 +18°C° 0,1 mm 3 m/s 744 mmHg 30%
    16:00 +18°C° 0 mm 3 m/s 744 mmHg 31%
    17:00 +17°C° 0 mm 4 m/s 744 mmHg 32%
    18:00 +15°C° 0 mm 4 m/s 744 mmHg 34%
    19:00 +15°C° 0 mm 4 m/s 745 mmHg 34%
    20:00 +16°C° 0 mm 3 m/s 745 mmHg 34%
    21:00 +16°C° 0 mm 3 m/s 745 mmHg 34%
    22:00 +15°C° 0 mm 4 m/s 745 mmHg 37%
    23:00 +14°C° 0 mm 4 m/s 745 mmHg 39%

    25 Fevereiro, Domingo

    Tempo Temperatura Precipitação Vento Pressão Humidade
    00:00 +14°C° 0 mm 5 m/s 745 mmHg 41%
    01:00 +14°C° 0 mm 5 m/s 745 mmHg 45%
    02:00 +13°C° 0 mm 6 m/s 745 mmHg 49%
    03:00 +13°C° 0 mm 6 m/s 746 mmHg 52%
    04:00 +11°C° 0 mm 6 m/s 746 mmHg 57%
    05:00 +10°C° 0 mm 6 m/s 746 mmHg 61%
    06:00 +10°C° 0 mm 6 m/s 747 mmHg 65%
    07:00 +11°C° 0 mm 7 m/s 747 mmHg 60%
    08:00 +12°C° 0 mm 7 m/s 748 mmHg 55%
    09:00 +14°C° 0 mm 7 m/s 749 mmHg 49%
    10:00 +15°C° 0 mm 7 m/s 749 mmHg 45%
    11:00 +16°C° 0 mm 6 m/s 749 mmHg 40%
    12:00 +17°C° 0 mm 6 m/s 749 mmHg 35%
    13:00 +17°C° 0 mm 6 m/s 749 mmHg 34%
    14:00 +17°C° 0 mm 6 m/s 749 mmHg 32%
    15:00 +17°C° 0 mm 6 m/s 749 mmHg 31%
    16:00 +16°C° 0 mm 5 m/s 749 mmHg 33%
    17:00 +16°C° 0 mm 5 m/s 749 mmHg 35%
    18:00 +15°C° 0 mm 4 m/s 750 mmHg 37%
    19:00 +14°C° 0 mm 4 m/s 750 mmHg 39%
    20:00 +13°C° 0 mm 4 m/s 751 mmHg 42%
    21:00 +13°C° 0 mm 4 m/s 751 mmHg 44%
    22:00 +12°C° 0 mm 4 m/s 751 mmHg 46%
    23:00 +12°C° 0 mm 3 m/s 751 mmHg 48%

    26 Fevereiro, Segunda-feira

    Tempo Temperatura Precipitação Vento Pressão Humidade
    00:00 +11°C° 0 mm 3 m/s 751 mmHg 49%
    01:00 +11°C° 0 mm 3 m/s 751 mmHg 50%
    02:00 +10°C° 0 mm 2 m/s 751 mmHg 51%
    03:00 +10°C° 0 mm 2 m/s 751 mmHg 52%
    04:00 +9°C° 0 mm 2 m/s 751 mmHg 53%
    05:00 +10°C° 0 mm 1 m/s 751 mmHg 54%
    06:00 +9°C° 0 mm 1 m/s 751 mmHg 55%
    07:00 +11°C° 0 mm 1 m/s 751 mmHg 49%
    08:00 +13°C° 0 mm 1 m/s 751 mmHg 43%
    09:00 +14°C° 0 mm 1 m/s 751 mmHg 37%
    10:00 +15°C° 0 mm 2 m/s 750 mmHg 34%
    11:00 +16°C° 0 mm 2 m/s 750 mmHg 31%
    12:00 +17°C° 0 mm 3 m/s 749 mmHg 28%
    13:00 +18°C° 0 mm 3 m/s 748 mmHg 28%
    14:00 +19°C° 0 mm 3 m/s 748 mmHg 28%
    15:00 +19°C° 0 mm 3 m/s 747 mmHg 27%
    16:00 +19°C° 0 mm 4 m/s 747 mmHg 29%
    17:00 +18°C° 0 mm 4 m/s 747 mmHg 31%
    18:00 +17°C° 0 mm 4 m/s 746 mmHg 33%
    19:00 +16°C° 0 mm 5 m/s 746 mmHg 34%
    20:00 +15°C° 0 mm 5 m/s 746 mmHg 36%
    21:00 +15°C° 0 mm 5 m/s 746 mmHg 37%
    22:00 +15°C° 0 mm 5 m/s 745 mmHg 36%
    23:00 +15°C° 0 mm 5 m/s 745 mmHg 36%
    Mostrar mais